Location: Camp Crooked Creek
(37.9149°N, 85.6607°W)
Time: 14:28:07
(UTC-05:00)

Daily predictions for brighter satellites

Satellite Brightness Start Highest point End
(mag) Time Altitude Azimuth Time Altitude Azimuth Time Altitude Azimuth
Cosmos 1190 Rocket 4.1 18:47:32 10° SSW 18:52:43 83° WNW 18:57:57 10° NNE
Cosmos 1833 4.5 18:49:08 10° S 18:54:35 48° ESE 19:00:00 10° NE
Thor Agena Rocket 4.4 18:51:07 10° N 18:56:02 54° WNW 19:00:56 10° SSW
COSMO-SKYMED 1 2.7 18:52:26 10° N 18:56:47 81° WNW 19:01:06 10° SSW
ALOS 3.4 18:53:31 10° ESE 18:57:10 23° ENE 19:00:51 10° NNE
Okean 2 Rocket 4.3 19:00:11 10° SSW 19:04:28 47° W 19:08:45 10° N
SL-16 R/B 2.4 18:58:52 10° NNW 19:04:34 83° WSW 19:10:13 10° SSE
FREGAT/IRIS 3.5 19:01:57 10° SE 19:04:42 30° ENE 19:07:27 10° N
Cosmos 1340 3.2 19:03:51 10° N 19:07:23 37° ENE 19:10:54 10° SE
Cosmos 1709 Rocket 4.0 19:05:55 10° S 19:12:03 64° E 19:18:09 10° NNE
Helios 1B rocket 4.1 19:18:13 13° ENE 19:19:20 14° E 19:21:35 10° SE
Cosmos 1954 Rocket 3.9 19:14:17 10° SSW 19:19:27 81° ESE 19:24:41 10° NNE
Cosmos 2322 Rocket 2.9 19:15:26 10° NNW 19:20:56 57° WSW 19:26:25 10° S
Meteor 1-28 Rocket 4.4 19:17:21 10° N 19:21:02 47° WNW 19:24:42 10° SSW
HJ-1C 4.1 19:18:49 10° SE 19:21:51 31° ENE 19:24:53 10° N
SJ-6B 2.8 19:19:11 10° SSE 19:23:09 61° ENE 19:27:03 10° N
Cosmos 2151 Rocket 4.1 19:19:07 10° SSW 19:23:34 64° W 19:28:05 10° N
Tiangong 2 1.7 19:20:48 10° WNW 19:23:49 51° SSW 19:26:31 12° SE
Okean 1 Rocket 3.4 19:20:17 10° SSE 19:24:32 44° E 19:28:48 10° NNE
Genesis I 4.5 19:23:23 10° N 19:26:33 23° NE 19:28:04 18° E
FENGYUN 3A 3.9 19:21:48 10° SE 19:26:57 48° ENE 19:32:09 10° N
TSX-5 4.1 19:24:16 10° SW 19:27:23 50° WNW 19:30:31 10° NNE
Meteor 1-19 Rocket 4.3 19:23:44 10° N 19:29:21 57° ENE 19:35:01 10° SSE
NOSS 8 (F) 4.4 19:26:29 10° SSW 19:30:02 78° ESE 19:33:35 10° NE
Gbstr 26 Del rocket 2.6 19:30:07 10° SW 19:34:00 84° NW 19:36:53 16° NE
Cosmos 2322 3.7 19:31:37 10° NNW 19:37:19 64° ENE 19:42:56 10° SSE
NOAA 12 4.5 19:32:46 10° S 19:38:03 70° WSW 19:43:23 10° NNW
Cosmos 1238 Rocket 1.9 19:35:33 10° N 19:38:31 77° E 19:41:31 10° S
CZ-2D R/B 4.0 19:43:32 27° E 19:44:29 31° ENE 19:47:52 10° N
GPS 2-04 Rocket1 3.6 19:40:41 10° SW 19:44:41 39° SSE 19:46:29 26° ESE
Cosmos 1025 Rocket 3.6 19:42:07 10° N 19:46:10 35° ENE 19:48:41 19° SE
Meteor 1-13 Rocket 4.2 19:40:48 10° N 19:46:23 88° WSW 19:52:02 10° S
GEOS 3 Rocket 3.6 19:41:09 10° NE 19:46:25 79° ESE 19:51:42 10° SSW
H-2A R/B 2.8 19:46:26 12° SSE 19:49:41 49° ENE 19:53:19 10° N
Cosmos 1536 2.7 19:46:12 10° S 19:50:10 71° E 19:54:09 10° NNE
SL-19 R/B 4.3 19:46:39 10° SSE 19:52:14 69° ENE 19:58:11 10° N
Okean 1-7 Rocket 3.6 19:47:58 10° N 19:52:26 58° E 19:56:50 10° SSE
COSMOS 2428 3.0 19:47:11 10° N 19:52:37 44° ENE 19:55:38 24° ESE
Cosmos 2237 4.3 19:47:17 10° NNW 19:52:56 57° ENE 19:57:28 16° SE
Meteor 1-23 Rocket 4.4 19:47:25 10° N 19:53:05 53° ENE 19:58:41 10° SSE
Cosmos 1633 3.9 19:51:09 10° SSW 19:54:39 42° W 19:58:11 10° N
Meteor 2-4 Rocket 3.5 19:49:56 10° N 19:55:27 68° E 20:00:49 10° SSE
Cosmos 2237 Rocket 3.8 19:52:43 10° NNE 19:55:53 17° NE 19:55:53 17° NE
SL-08 ROCKET BODY 4.4 19:51:04 10° S 19:57:11 70° E 20:03:21 10° NNE
Cosmos 1741 Rocket 3.9 19:57:43 10° SSW 20:02:57 89° WNW 20:08:12 10° NNE
Cosmos 2219 3.2 20:05:34 10° SSW 20:11:19 89° ESE 20:17:06 10° NNE
Cosmos 2360 Rocket 2.8 20:06:13 10° NNW 20:11:46 57° WSW 20:17:17 10° S
Cosmos 2219 Rocket 2.7 20:08:27 10° N 20:13:35 36° ENE 20:13:35 36° ENE
Cosmos 2227 Rocket 4.2 20:12:58 10° SSE 20:13:25 12° SSE 20:13:25 12° SSE
Cosmos 1570 Rocket 4.0 20:15:09 10° NNW 20:20:24 82° WSW 20:24:15 19° SSE
BREEZE-M DEB (TANK) 3.3 20:20:39 10° WSW 20:23:46 43° WNW 20:23:46 43° WNW
Resurs 01 Rocket 2.4 20:21:07 10° S 20:25:23 51° W 20:29:42 10° NNW
SL-16 R/B 4.4 20:26:53 10° NNE 20:27:20 11° NNE 20:27:20 11° NNE
DELTA 2 R/B (1) 4.1 20:24:39 10° W 20:30:04 50° SSW 20:31:31 40° SSE
Abrixas rocket 3.6 20:27:20 10° WSW 20:29:39 39° W 20:29:39 39° W
Spot 1 3.9 20:31:44 77° WNW 20:31:44 77° WNW 20:35:39 10° NNW
Cosmos 1610 Rocket 4.3 20:25:42 10° S 20:31:56 80° E 20:38:07 10° N
ATLAS CENTAUR R/B 3.1 20:28:00 10° SW 20:30:46 28° SSW 20:30:46 28° SSW
BREEZE-M DEB (TANK) 4.0 20:29:31 10° NW 20:33:17 63° NE 20:35:01 48° E
ALOS 4.0 20:30:15 10° SSW 20:34:25 32° W 20:38:37 10° NNW
Helios 1A 3.4 20:40:55 61° WNW 20:40:55 61° WNW 20:44:40 10° NNW
Cosmos 2333 Rocket 2.7 20:41:52 10° NNW 20:46:14 46° NNE 20:46:14 46° NNE
USA 229 DEB 3.7 20:46:09 10° NNW 20:53:21 86° NE 20:54:32 66° SE
USA 229 3.7 20:46:15 10° NNW 20:53:27 86° ENE 20:54:36 66° SE
Helios 1B rocket 3.7 20:50:53 10° N 20:54:48 41° WNW 20:58:41 10° SW
Envisat 4.1 20:58:42 36° N 20:58:42 36° N 21:01:40 10° N
BREEZE-M DEB (TANK) 4.1 21:15:01 10° WNW 21:17:20 43° W 21:17:20 43° W
Nadezhda 3 Rocket 4.4 21:16:04 10° NNW 21:21:26 58° WNW 21:21:26 58° WNW
NOSS 3-1 (C) 4.3 21:18:07 10° NNW 21:24:23 58° N 21:24:23 58° N
Cosmos 2237 Rocket 3.9 21:35:17 10° NNW 21:37:45 27° NNW 21:37:45 27° NNW
Cosmos 2219 Rocket 4.3 21:52:38 10° NW 21:55:21 23° WNW 21:55:21 23° WNW
